Martinsburg, PA

9:51 AM EDT on August 24, 2016 (GMT -0400)
Altoona-Blair County

Weather History for KAOO - February, 2013

Change the Weather History Date:

Thursday, February 7, 2013

  Actual Average Record
Temperature  
Mean Temperature 25 °F 28 °F  
Max Temperature 34 °F 36 °F 54 °F (2005)
Min Temperature 16 °F 20 °F 0 °F (1988)
Degree Days  
Heating Degree Days 40 37  
Month to date heating degree days 261  
Since 1 July heating degree days 3814  
Cooling Degree Days 0 0  
Month to date cooling degree days 0  
Year to date cooling degree days 0  
Moisture  
Dew Point 18 °F    
Average Humidity 73    
Maximum Humidity 86    
Minimum Humidity 60    
Precipitation  
Precipitation 0.00 in 0.07 in 0.90 in (1965)
Month to date precipitation 0.51  
Year to date precipitation 2.68  
Sea Level Pressure  
Sea Level Pressure 30.29 in    
Wind  
Wind Speed 3 mph (SSE)    
Max Wind Speed 18 mph    
Max Gust Speed 23 mph    
Visibility 7 miles    
Events      
T = Trace of Precipitation, MM = Missing Value Source: NWS Daily Summary

Daily Weather History Graph

Daily Weather History Graph

Search for Another Location

Airport or City:

Trip Planner

Search our weather history database for the weather conditions in past years. The results will help you decide how hot, cold, wet, or windy it might be!

Date:

Astronomy

Feb. 07, 2013 Rise Set
Actual Time 7:15 AM EST 5:39 PM EST
Civil Twilight 6:47 AM EST 6:07 PM EST
Nautical Twilight 6:15 AM EST 6:40 PM EST
Astronomical Twilight 5:43 AM EST 7:11 PM EST
Moon 4:54 AM EST (2/7) 3:01 PM EST (2/7)
Length of Visible Light 11h 20m
Length of Day
10h 23m
Waning Crescent, 9% of the Moon is Illuminated
Feb 7
Waning Crescent
Feb 10
New
Feb 17
First Quarter
Feb 25
Full
Mar 4
Last Quarter

Hourly Weather History & Observations

Time (EST) Temp. Windchill Dew Point Humidity Pressure Visibility Wind Dir Wind Speed Gust Speed Precip Events Conditions
12:53 AM 17.1 °F - 12.0 °F 81% 30.34 in 7.0 mi Calm Calm - N/A   Clear
1:53 AM 17.1 °F - 12.9 °F 84% 30.36 in 5.0 mi Calm Calm - N/A   Clear
2:53 AM 16.0 °F - 12.0 °F 84% 30.36 in 5.0 mi Calm Calm - N/A   Clear
3:53 AM 17.1 °F - 12.9 °F 84% 30.35 in 4.0 mi Calm Calm - N/A   Clear
4:53 AM 19.0 °F - 14.0 °F 81% 30.35 in 5.0 mi Calm Calm - N/A   Haze
5:49 AM 17.6 °F - 12.2 °F 79% 30.32 in 5.0 mi Calm Calm - N/A   Haze
5:53 AM 18.0 °F - 12.9 °F 81% 30.39 in 5.0 mi Calm Calm - N/A   Haze
6:53 AM 18.0 °F - 14.0 °F 84% 30.40 in 4.0 mi Calm Calm - N/A   Clear
7:34 AM 17.6 °F - 14.0 °F 86% 30.32 in 2.0 mi Calm Calm - N/A   Mostly Cloudy
7:53 AM 19.0 °F - 15.1 °F 85% 30.40 in 2.0 mi Calm Calm - N/A   Scattered Clouds
8:53 AM 21.9 °F - 17.1 °F 82% 30.40 in 2.5 mi Calm Calm - N/A   Haze
9:15 AM 23.0 °F - 17.6 °F 80% 30.33 in 4.0 mi Calm Calm - N/A   Haze
9:53 AM 26.1 °F - 19.0 °F 75% 30.40 in 3.0 mi Calm Calm - N/A   Haze
10:53 AM 28.9 °F - 18.0 °F 64% 30.38 in 8.0 mi Calm Calm - N/A   Mostly Cloudy
11:53 AM 30.9 °F 24.3 °F 19.9 °F 64% 30.35 in 10.0 mi SSE 6.9 mph - N/A   Overcast
12:53 PM 32.0 °F - 21.0 °F 64% 30.32 in - North - - N/A   Mostly Cloudy
1:53 PM 33.1 °F 26.9 °F 21.9 °F 64% 30.29 in 10.0 mi SSE 6.9 mph - N/A   Mostly Cloudy
2:53 PM 34.0 °F 26.6 °F 21.9 °F 61% 30.26 in 10.0 mi SE 9.2 mph - N/A   Clear
3:53 PM 33.1 °F 25.5 °F 21.9 °F 64% 30.25 in 10.0 mi SE 9.2 mph - N/A   Partly Cloudy
4:24 PM 33.8 °F 28.6 °F 21.2 °F 60% 30.20 in 10.0 mi SSE 5.8 mph - N/A   Overcast
4:53 PM 32.0 °F 23.6 °F 21.9 °F 66% 30.25 in 10.0 mi SSE 10.4 mph - N/A   Mostly Cloudy
5:53 PM 30.9 °F 24.3 °F 21.9 °F 69% 30.25 in 10.0 mi SE 6.9 mph - N/A   Scattered Clouds
6:53 PM 30.9 °F 21.7 °F 21.0 °F 67% 30.26 in 10.0 mi SSE 11.5 mph - N/A   Overcast
7:53 PM 30.9 °F 22.8 °F 21.0 °F 67% 30.24 in 10.0 mi SSE 9.2 mph 17.3 mph N/A   Overcast
8:53 PM 30.9 °F 22.8 °F 21.9 °F 69% 30.23 in 10.0 mi South 9.2 mph - N/A   Overcast
9:12 PM 30.2 °F 21.3 °F 21.2 °F 69% 30.16 in 10.0 mi SSE 10.4 mph - N/A   Overcast
9:53 PM 30.9 °F 21.2 °F 21.9 °F 69% 30.20 in 10.0 mi SSE 12.7 mph - N/A   Overcast
10:48 PM 30.2 °F 18.1 °F 21.2 °F 69% 30.13 in 10.0 mi SSE 18.4 mph 23.0 mph N/A   Overcast
10:53 PM 30.9 °F 21.7 °F 21.9 °F 69% 30.19 in 10.0 mi South 11.5 mph 23.0 mph N/A   Overcast
11:17 PM 30.2 °F 23.4 °F 21.2 °F 69% 30.12 in 10.0 mi South 6.9 mph - N/A   Overcast